Back to catalog

TITAN 3C TRANSTAGE DEB

LostHEO
NORAD 27723·DEBRIS·🇺🇸 United States

Launched Dec 21, 1965 from Cape Canaveral Space Force Station

Loading…

Next Passes (next 24 hours)

TLE

StaleSource: Space-Track

Epoch: Mar 27, 2026, 23:25 UTC

1 27723U 65108BD  26086.97573894  .00000398  00000-0  70447-2 0  9999
2 27723  27.2497 234.0420 6724896 176.1221 263.7568  2.75926604  1640

Track TITAN 3C TRANSTAGE DEB in real time with AllMySat

Download on the App Store